Regional Weather Roundup
Issued by NWS Upton, NY

Current Version | Previous Version | Text Only | Print | Product List | Glossary On
Versions: 1 2 3 4 5 6 7 8 9 10 11 12 13 14 15 16 17 18 19 20 21 22 23 24 25 26 27 28 29 30 31 32 33 34 35 36 37 38 39 40 41 42 43 44 45 46 47 48 49 50
000
ASUS41 KOKX 200407
RWROKX

REGIONAL WEATHER ROUNDUP
NATIONAL WEATHER SERVICE NEW YORK NY
1200 AM EDT MON APR 20 2015

NOTE: "FAIR" INDICATES FEW OR NO CLOUDS BELOW 12,000 FEET WITH NO
SIGNIFICANT WEATHER AND/OR OBSTRUCTIONS TO VISIBILITY.

NYZ071-072-176-178-NJZ106-104-200500-
NEW YORK CITY METRO AREA


CITY           SKY/WX    TMP DP  RH WIND       PRES   REMARKS
CENTRAL PARK   CLOUDY    48  36  63 MISG      30.19F
LAGUARDIA APRT CLOUDY    48  37  65 SE13      30.17F
KENNEDY INTL   CLOUDY    47  40  76 E12       30.18F
NEWARK/LIBERTY CLOUDY    48  39  71 E10       30.16F
BRNX BOT. GARD   N/A     46  37  71 E7        30.19R
TETERBORO      CLOUDY    48  36  63 SE12      30.16F
$$

NYZ177-179-078>081-200500-
LONG ISLAND NEW YORK

CITY           SKY/WX    TMP DP  RH WIND       PRES   REMARKS
FARMINGDALE    CLOUDY    45  39  79 SE12      30.19F
ISLIP          CLOUDY    45  38  76 SE10      30.18F
SHIRLEY        CLOUDY    45  39  79 SE10G17   30.21S
WESTHAMPTON    CLOUDY    45  38  76 SE8       30.21F
MONTAUK POINT    N/A     44  38  79 E5        30.23F
$$

NYZ052-065-067-200500-
HUDSON VALLEY

CITY           SKY/WX    TMP DP  RH WIND       PRES   REMARKS
WHITE PLAINS   CLOUDY    44  35  70 E12       30.16F
NEWBURGH       NOT AVBL
MONTGOMERY     CLOUDY    48  30  49 SE3       30.14F
POUGHKEEPSIE   CLOUDY    49  32  52 SE8       30.16F
ALBANY         CLOUDY    52  31  44 S16G25    30.11F
$$

NJZ001-105-106-008-010-013-015-019>022-104-200500-
NEW JERSEY

CITY           SKY/WX    TMP DP  RH WIND       PRES   REMARKS
NEWARK/LIBERTY CLOUDY    48  39  71 E10       30.16F
TETERBORO      CLOUDY    48  36  63 SE12      30.16F
CALDWELL       CLOUDY    47  34  60 VRB7      30.16F
MORRISTOWN     CLOUDY    48  36  61 CALM      30.15F
SOMERVILLE     CLOUDY    48  36  63 E13       30.12F
SUSSEX         CLOUDY    47  31  53 SE6       30.14F
ANDOVER          N/A     45  32  60 MISG      30.12F
TRENTON        LGT RAIN  47  37  68 E9        30.09F
MILLVILLE      CLOUDY    51  46  83 E14       30.02F
ATLANTIC CITY  CLOUDY    50  45  83 E16       30.06F
WRIGHTSTOWN    LGT RAIN  47  43  87 E13       30.05F
TOMS RIVER     CLOUDY    48  43  81 E8        30.11F
BELMAR         CLOUDY    46  37  71 E13       30.13F
$$

PAZ047>061-062-071-200500-
EASTERN PENNSYLVANIA

CITY           SKY/WX    TMP DP  RH WIND       PRES   REMARKS
PHILADELPHIA   CLOUDY    49  43  80 E14       30.06F
ALLENTOWN      LGT RAIN  48  33  56 E12       30.08F
SCRANTON       LGT RAIN  49  27  42 SE9G24    30.02F
$$

CTZ002-004>006-009-010-012-RIZ004-006-007-MAZ004-011-015-200500-
SOUTHERN NEW ENGLAND
 IN CT

CITY           SKY/WX    TMP DP  RH WIND       PRES   REMARKS
BRADLEY INTL   CLOUDY    45  33  63 SE7       30.20F
HARTFORD       CLOUDY    45  34  65 SE8       30.22F
DANBURY        CLOUDY    44  31  60 SE8       30.19F
WTRBRY/OXFORD  CLOUDY    43  30  61 SE6       30.20S
BRIDGEPORT     CLOUDY    45  40  82 E7        30.21S
MERIDEN        CLOUDY    45  35  68 SE3       30.21F
NEW HAVEN      CLOUDY    44  38  79 E8        30.21F
CHESTER        FAIR      43  37  81 SE5       30.21F
GROTON         CLOUDY    43  38  82 E7        30.23S
WILLIMANTIC    MOCLDY    43  34  70 CALM      30.23S

 IN RI

CITY           SKY/WX    TMP DP  RH WIND       PRES   REMARKS
PROVIDENCE     PTCLDY    42  37  82 SE3       30.25F
BLOCK ISLAND   CLOUDY    43  36  75 E6        30.23S
WESTERLY       MOCLDY    42  39  89 E6        30.24F

 IN MA

CITY           SKY/WX    TMP DP  RH WIND       PRES   REMARKS
BOSTON         MOCLDY    42  35  76 S5        30.26S
WORCESTER      MOCLDY    42  32  67 SE7       30.21S
WESTFIELD      CLOUDY    46  31  55 S7        30.20F
PROVINCETOWN   CLOUDY   N/A N/A N/A E3        30.25F
NANTUCKET      CLOUDY    41  37  86 SE14      30.25F
$$

ANZ330-335-338-340-345-350-353-355-200500-
COASTAL MARINE OBSERVATIONS


STATION/POSITION TIME  SKY/WX   TEMP    WIND        PRES    VSBY  WAVE
                                AIR SEA DIR/SP/G                  HT/PER
                 (UTC)          (F)     (DEG/KT/KT) (MB)    (MI)  (FT/S)
NY HARB ENTRANCE 0350            45 46   90/ 14/ 16 1020.9          3/ 5
4S FIRE IS       0303               45                N/A           3/ 7
20S FIRE ISLAND  0250               45              1022.1          3/ 5
23SW MTP         NOT AVBL
HUDSON CANYON    NOT AVBL
EXECUTION ROCKS  NOT AVBL
WESTERN LI SOUND NOT AVBL
CENTRAL LI SOUND NOT AVBL
EASTERN LI SOUND 0300            42     110/  6/ 10   N/A
ROBBINS REEF     0300            46     120/ 15/ 17 1020.7
$$


>>>>>>>>>>>>>>>>>>>>>>>>>>>> KEY <<<<<<<<<<<<<<<<<<<<<<<<<<<
>                                                          <
>     SKY/WX - SKY CONDITION/PRESENT WEATHER               <
>     TMP    - TEMPERATURE IN FAHRENHEIT                   <
>     DP     - DEWPOINT IN FAHRENHEIT                      <
>     RH     - RELATIVE HUMIDITY IN PERCENT                <
>     WIND   - DIRECTION AND SPEED IN MPH                  <
>     PRES   - MEAN SEA LEVEL PRESSURE IN INCHES OF HG     <
>     WCI    - WIND CHILL INDEX                            <
>     VSB    - VISIBILITY IN MILES                         <
>     HX     - HEAT INDEX                                  <
>     TC     - TEMPERATURE IN CELSIUS                      <
>     VRB    - VARIABLE WIND DIRECTION                     <
>                                                          <
>>>>>>>>>>>>>>>>>>>>>>>>>>>> KEY <<<<<<<<<<<<<<<<<<<<<<<<<<<





USA.gov is the U.S. government's official web portal to all federal, state and local government web resources and services.